Colby, KS

1:54 PM CDT on May 28, 2017 (GMT -0500)
Shaltz

Weather History for KCBK - February, 2013

Change the Weather History Date:

Wednesday, February 13, 2013

  Actual Average (KGLD) Record (KGLD)
Temperature  
Mean Temperature 37 °F -  
Max Temperature 53 °F 47 °F 77 °F (1954)
Min Temperature 21 °F 21 °F -11 °F (1948)
Degree Days  
Heating Degree Days 28    
Moisture  
Dew Point 23 °F    
Average Humidity 62    
Maximum Humidity 93    
Minimum Humidity 33    
Precipitation  
Precipitation 0.00 in - - ()
Sea Level Pressure  
Sea Level Pressure 29.93 in    
Wind  
Wind Speed 13 mph (WNW)    
Max Wind Speed 24 mph    
Max Gust Speed 32 mph    
Visibility 10 miles    
Events      
Averages and records for this station are not official NWS values.
T = Trace of Precipitation, MM = Missing Value Source: NWS Daily Summary

Daily Weather History Graph

Daily Weather History Graph

Search for Another Location

Airport or City:

Trip Planner

Search our weather history database for the weather conditions in past years. The results will help you decide how hot, cold, wet, or windy it might be!

Date:

Astronomy

Feb. 13, 2013 Rise Set
Actual Time 7:38 AM CST 6:19 PM CST
Civil Twilight 7:10 AM CST 6:46 PM CST
Nautical Twilight 6:39 AM CST 7:18 PM CST
Astronomical Twilight 6:08 AM CST 7:49 PM CST
Moon 9:10 AM CST (2/13) 10:22 PM CST (2/13)
Length of Visible Light 11h 35m
Length of Day
10h 40m
Waxing Crescent, 14% of the Moon is Illuminated
Feb 13
Waxing Crescent
Feb 17
First Quarter
Feb 25
Full
Mar 4
Last Quarter
Mar 11
New

Hourly Weather History & Observations

Time (CST) Temp. Windchill Dew Point Humidity Pressure Visibility Wind Dir Wind Speed Gust Speed Precip Events Conditions
12:15 AM 23.0 °F 12.4 °F 19.4 °F 86% 30.01 in 10.0 mi West 10.4 mph - N/A   Clear
12:35 AM 24.8 °F 14.6 °F 19.4 °F 80% 30.00 in 10.0 mi WNW 10.4 mph - N/A   Clear
12:55 AM 26.6 °F 14.7 °F 21.2 °F 80% 30.00 in 10.0 mi WNW 15.0 mph - N/A   Clear
1:15 AM 26.6 °F 15.2 °F 21.2 °F 80% 30.00 in 10.0 mi WNW 13.8 mph - N/A   Clear
1:35 AM 26.6 °F 15.7 °F 21.2 °F 80% 29.99 in 10.0 mi WNW 12.7 mph - N/A   Clear
1:55 AM 26.6 °F 14.3 °F 21.2 °F 80% 29.99 in 10.0 mi WNW 16.1 mph - N/A   Clear
2:15 AM 26.6 °F 14.7 °F 19.4 °F 74% 29.99 in 10.0 mi WNW 15.0 mph - N/A   Clear
2:35 AM 26.6 °F 15.2 °F 19.4 °F 74% 29.98 in 10.0 mi WNW 13.8 mph - N/A   Clear
2:55 AM 23.0 °F 11.7 °F 19.4 °F 86% 29.98 in 10.0 mi West 11.5 mph - N/A   Clear
3:15 AM 24.8 °F 13.4 °F 19.4 °F 80% 29.98 in 10.0 mi WNW 12.7 mph - N/A   Clear
3:35 AM 26.6 °F 14.7 °F 19.4 °F 74% 29.98 in 10.0 mi WNW 15.0 mph - N/A   Clear
3:55 AM 26.6 °F 15.2 °F 19.4 °F 74% 29.97 in 10.0 mi WNW 13.8 mph - N/A   Clear
4:15 AM 26.6 °F 16.2 °F 19.4 °F 74% 29.96 in 10.0 mi WNW 11.5 mph - N/A   Clear
4:35 AM 24.8 °F 14.0 °F 19.4 °F 80% 29.96 in 10.0 mi WNW 11.5 mph - N/A   Clear
4:55 AM 23.0 °F 13.1 °F 19.4 °F 86% 29.96 in 10.0 mi West 9.2 mph - N/A   Clear
5:15 AM 23.0 °F 12.4 °F 19.4 °F 86% 29.95 in 10.0 mi West 10.4 mph - N/A   Clear
5:35 AM 23.0 °F 13.1 °F 19.4 °F 86% 29.96 in 10.0 mi West 9.2 mph - N/A   Clear
5:55 AM 23.0 °F 13.9 °F 19.4 °F 86% 29.95 in 10.0 mi West 8.1 mph - N/A   Clear
6:15 AM 21.2 °F 10.1 °F 19.4 °F 93% 29.95 in 10.0 mi West 10.4 mph - N/A   Clear
6:35 AM 23.0 °F 11.7 °F 19.4 °F 86% 29.95 in 10.0 mi West 11.5 mph - N/A   Clear
6:55 AM 23.0 °F 13.1 °F 19.4 °F 86% 29.95 in 10.0 mi West 9.2 mph - N/A   Clear
7:15 AM 21.2 °F 10.9 °F 19.4 °F 93% 29.95 in 10.0 mi West 9.2 mph - N/A   Clear
7:35 AM 23.0 °F 14.7 °F 19.4 °F 86% 29.95 in 10.0 mi West 6.9 mph - N/A   Clear
7:55 AM 23.0 °F 11.7 °F 19.4 °F 86% 29.95 in 10.0 mi West 11.5 mph - N/A   Clear
8:15 AM 24.8 °F 13.4 °F 19.4 °F 80% 29.95 in 10.0 mi West 12.7 mph - N/A   Clear
8:35 AM 28.4 °F 18.5 °F 21.2 °F 74% 29.95 in 10.0 mi West 11.5 mph - N/A   Clear
8:55 AM 30.2 °F 21.9 °F 21.2 °F 69% 29.95 in 10.0 mi West 9.2 mph - N/A   Clear
9:15 AM 33.8 °F 24.3 °F 23.0 °F 65% 29.95 in 10.0 mi West 13.8 mph - N/A   Clear
9:35 AM 35.6 °F 26.2 °F 23.0 °F 60% 29.95 in 10.0 mi West 15.0 mph - N/A   Clear
9:55 AM 37.4 °F 28.9 °F 23.0 °F 56% 29.95 in 10.0 mi West 13.8 mph - N/A   Clear
10:15 AM 39.2 °F 32.0 °F 21.2 °F 49% 29.95 in 10.0 mi WSW 11.5 mph - N/A   Clear
10:35 AM 42.8 °F 35.4 °F 21.2 °F 42% 29.95 in 10.0 mi WNW 15.0 mph 21.9 mph N/A   Clear
10:55 AM 44.6 °F 38.1 °F 21.2 °F 39% 29.94 in 10.0 mi WNW 13.8 mph - N/A   Clear
11:15 AM 44.6 °F 37.4 °F 23.0 °F 43% 29.93 in 10.0 mi WNW 16.1 mph 21.9 mph N/A   Clear
11:35 AM 46.4 °F 40.4 °F 23.0 °F 40% 29.93 in 10.0 mi WNW 13.8 mph 21.9 mph N/A   Clear
11:55 AM 46.4 °F 39.2 °F 23.0 °F 40% 29.93 in 10.0 mi WNW 18.4 mph 21.9 mph N/A   Clear
12:15 PM 48.2 °F - 23.0 °F 37% 29.92 in 10.0 mi WNW 17.3 mph 24.2 mph N/A   Clear
12:35 PM 50.0 °F - 23.0 °F 35% 29.92 in 10.0 mi WNW 15.0 mph - N/A   Clear
12:55 PM 50.0 °F - 23.0 °F 35% 29.91 in 10.0 mi WNW 15.0 mph 23.0 mph N/A   Clear
1:15 PM 51.8 °F - 24.8 °F 35% 29.89 in 10.0 mi WNW 19.6 mph 24.2 mph N/A   Clear
1:35 PM 51.8 °F - 24.8 °F 35% 29.88 in 10.0 mi NW 16.1 mph 29.9 mph N/A   Clear
1:55 PM 53.6 °F - 26.6 °F 35% 29.88 in 10.0 mi NW 18.4 mph 26.5 mph N/A   Clear
2:15 PM 53.6 °F - 26.6 °F 35% 29.87 in 10.0 mi NNW 23.0 mph 27.6 mph N/A   Clear
2:35 PM 51.8 °F - 26.6 °F 38% 29.86 in 10.0 mi NW 24.2 mph 29.9 mph N/A   Clear
2:55 PM 53.6 °F - 26.6 °F 35% 29.86 in 10.0 mi NNW 23.0 mph 32.2 mph N/A   Clear
3:15 PM 53.6 °F - 26.6 °F 35% 29.86 in 10.0 mi NW 21.9 mph 32.2 mph N/A   Clear
3:35 PM 53.6 °F - 26.6 °F 35% 29.86 in 10.0 mi NNW 24.2 mph 28.8 mph N/A   Scattered Clouds
3:55 PM 53.6 °F - 26.6 °F 35% 29.86 in 10.0 mi NW 19.6 mph 25.3 mph N/A   Clear
4:15 PM 53.6 °F - 24.8 °F 33% 29.86 in 10.0 mi NW 20.7 mph 31.1 mph N/A   Clear
4:35 PM 53.6 °F - 24.8 °F 33% 29.86 in 10.0 mi WNW 19.6 mph 23.0 mph N/A   Clear
4:55 PM 51.8 °F - 23.0 °F 33% 29.86 in 10.0 mi NW 17.3 mph 27.6 mph N/A   Clear
5:15 PM 51.8 °F - 24.8 °F 35% 29.86 in 10.0 mi NW 15.0 mph 24.2 mph N/A   Clear
5:35 PM 50.0 °F - 24.8 °F 37% 29.87 in 10.0 mi NNW 13.8 mph - N/A   Clear
5:55 PM 50.0 °F - 26.6 °F 40% 29.88 in 10.0 mi North 11.5 mph 17.3 mph N/A   Clear
6:15 PM 46.4 °F 41.5 °F 26.6 °F 46% 29.88 in 10.0 mi North 10.4 mph - N/A   Clear
6:35 PM 44.6 °F 39.7 °F 24.8 °F 46% 29.88 in 10.0 mi North 9.2 mph - N/A   Clear
6:55 PM 42.8 °F 38.6 °F 26.6 °F 53% 29.89 in 10.0 mi North 6.9 mph - N/A   Clear
7:15 PM 41.0 °F 36.4 °F 24.8 °F 53% 29.89 in 10.0 mi North 6.9 mph - N/A   Clear
7:35 PM 41.0 °F 37.1 °F 26.6 °F 57% 29.90 in 10.0 mi North 5.8 mph - N/A   Clear
7:55 PM 41.0 °F 39.0 °F 26.6 °F 57% 29.91 in 10.0 mi NNW 3.5 mph - N/A   Clear
8:15 PM 35.6 °F 32.8 °F 24.8 °F 65% 29.91 in 10.0 mi NNW 3.5 mph - N/A   Clear
8:35 PM 28.4 °F 22.2 °F 21.2 °F 74% 29.91 in 10.0 mi West 5.8 mph - N/A   Clear
8:55 PM 28.4 °F 21.2 °F 21.2 °F 74% 29.91 in 10.0 mi WSW 6.9 mph - N/A   Clear
9:15 PM 30.2 °F 22.6 °F 23.0 °F 75% 29.92 in 10.0 mi West 8.1 mph - N/A   Clear
9:35 PM 30.2 °F 21.3 °F 24.8 °F 80% 29.93 in 10.0 mi West 10.4 mph - N/A   Clear
9:55 PM 32.0 °F 23.0 °F 24.8 °F 75% 29.95 in 10.0 mi WNW 11.5 mph - N/A   Clear
10:15 PM 32.0 °F 23.6 °F 26.6 °F 80% 29.96 in 10.0 mi WNW 10.4 mph - N/A   Clear
10:35 PM 32.0 °F 24.2 °F 24.8 °F 75% 29.96 in 10.0 mi West 9.2 mph - N/A   Clear
10:55 PM 30.2 °F 22.6 °F 24.8 °F 80% 29.96 in 10.0 mi West 8.1 mph - N/A   Clear
11:15 PM 30.2 °F 20.8 °F 24.8 °F 80% 29.97 in 10.0 mi West 11.5 mph - N/A   Clear
11:35 PM 32.0 °F 22.5 °F 26.6 °F 80% 29.98 in 10.0 mi WNW 12.7 mph - N/A   Clear
11:55 PM 32.0 °F 23.0 °F 26.6 °F 80% 29.98 in 10.0 mi West 11.5 mph - N/A   Clear